Weather Roundup
Issued by NWS

Home | Current Version | Previous Version | Graphics & Text | Print | Product List | Glossary Off
Versions: 1 2 3 4 5 6 7 8 9 10 11 12 13 14 15 16 17 18 19 20 21 22 23 24 25 26 27 28 29 30 31 32 33 34 35 36 37 38 39 40 41 42 43 44 45 46 47 48 49 50

000
NZUS93 KARX 230559
HRRWXR

CURRENT HOURLY OBSERVATIONS ACROSS
MUCH OF THE UPPER MISSISSIPPI VALLEY
NATIONAL WEATHER SERVICE LA CROSSE WI
100 AM CDT SAT MAY 23 2015


...SOUTHEAST MINNESOTA...


CITY           SKY/WX    TMP DP  RH WIND       PRES   REMARKS
ROCHESTER      MOCLDY    55  40  56 SE8       30.23S
ROCHESTER/MAYO FAIR      59  38  44 E6        30.22S
WINONA         MOCLDY    50  46  87 CALM      30.23S
AUSTIN         MOCLDY    55  39  54 CALM      30.20F
ALBERT LEA     MOCLDY    61  41  48 SW6       30.21R
DODGE CENTER   MOCLDY    57  39  51 SE6       30.21F
PRESTON        CLOUDY    58  40  51 SE5       30.22F
OWATONNA       MOCLDY    57  37  47 E5        30.20F
FARIBAULT      MOCLDY    52  43  71 CALM      30.21S
$$

...ELSEWHERE IN MINNESOTA...


CITY           SKY/WX    TMP DP  RH WIND       PRES   REMARKS
MINNEAPOLIS    PTCLDY    59  39  47 SE5       30.20S
INTNL FALLS    MOCLDY    53  42  66 SW5       30.11S
DULUTH         CLEAR     53  36  52 SW10      30.18S
RED WING       PTCLDY    46  43  87 CALM      30.21S
REDWOOD FALLS  PTCLDY    59  43  55 W8        30.21R
MANKATO        PTCLDY    59  37  44 S6        30.21R
WORTHINGTON    MOCLDY    54  39  58 CALM      30.22R
FAIRMONT       MOCLDY    57  39  51 NW7       30.22S
$$

...SOUTHWEST WISCONSIN...


CITY           SKY/WX    TMP DP  RH WIND       PRES   REMARKS
LA CROSSE      MOCLDY    54  44  69 SE5       30.22S
PRAIRIE DU CHI MOCLDY    53  45  73 CALM      30.23R
BOSCOBEL       PTCLDY    50  44  80 CALM      30.24R
LONE ROCK      NOT AVBL
PLATTEVILLE    CLOUDY    58  43  58 SE10      30.24S
FORT MC COY    PTCLDY    43  39  88 CALM      30.24S
VIROQUA        FAIR      58  37  44 SE6       30.23S
WIS DELLS      MOCLDY    53  37  56 S7        30.25S
$$

...ELSEWHERE IN WISCONSIN...


CITY           SKY/WX    TMP DP  RH WIND       PRES   REMARKS
MILWAUKEE      CLOUDY    49  29  46 S5        30.28F
MADISON        CLOUDY    55  31  39 S8        30.27S
GREEN BAY      CLEAR     45  32  60 CALM      30.26S
EAU CLAIRE     PTCLDY    47  40  76 CALM      30.22R
BLACK RVR FLS  FAIR      41  40  99 CALM      30.23S
MEDFORD        CLEAR     42  38  84 CALM      30.23F
WAUSAU         CLEAR     47  40  76 CALM      30.22S
WIS RAPIDS     PTCLDY    53  36  52 S7        30.25S
MARSHFIELD     PTCLDY    51  39  63 CALM      30.23F
RICE LAKE      CLEAR     46  42  86 CALM      30.23S
$$

...NORTHEAST IOWA...


CITY           SKY/WX    TMP DP  RH WIND       PRES   REMARKS
DECORAH        CLOUDY    59  41  51 CALM      30.21S
MASON CITY     CLOUDY    58  46  64 W10       30.23S
CHARLES CITY   CLOUDY    59  41  51 SE6       30.21S
OELWEIN        CLOUDY    59  45  58 S5        30.23R
$$

...ELSEWHERE IN IOWA...


CITY           SKY/WX    TMP DP  RH WIND       PRES   REMARKS
DES MOINES     MOCLDY    59  49  69 S5        30.22R
IOWA CITY      CLOUDY    61  50  67 CALM      30.23F
FORT DODGE     CLOUDY    55  46  71 CALM      30.22S
$$

...NORTHERN ILLINOIS...


CITY           SKY/WX    TMP DP  RH WIND       PRES   REMARKS
CHICAGO-OHARE  PTCLDY    50  33  52 SE3       30.29S
CHICAGO-MIDWAY MOCLDY    55  37  50 CALM      30.29S
MOLINE         CLOUDY    60  47  61 E7        30.23R
ROCKFORD       CLOUDY    52  33  48 SE5       30.30S
PEORIA         CLOUDY    64  47  53 NW5       30.25R
$$

NOTE: "FAIR" INDICATES FEW OR NO CLOUDS BELOW 12,000 FEET WITH NO
SIGNIFICANT WEATHER AND/OR OBSTRUCTIONS TO VISIBILITY. WIND
SPEEDS ARE IN MILES-PER-HOUR.



USA.gov is the U.S. government's official web portal to all federal, state and local government web resources and services.